Regional Weather Roundup
Issued by NWS Jackson, KY

Home | Current Version | Previous Version | Graphics & Text | Print | Product List | Glossary Off
Versions: 1 2 3 4 5 6 7 8 9 10 11 12 13 14 15 16 17 18 19 20 21 22 23 24 25 26 27 28 29 30 31 32 33 34 35 36 37 38 39 40 41 42 43 44 45 46 47 48 49 50

000
ASUS43 KJKL 271610
RWRJKL

EAST KENTUCKY HOURLY WEATHER ROUNDUP
NATIONAL WEATHER SERVICE JACKSON KY
1200 PM EDT FRI MAR 27 2015

NOTE: "FAIR" INDICATES FEW OR NO CLOUDS BELOW 12,000 FEET WITH
NO SIGNIFICANT WEATHER AND/OR OBSTRUCTIONS TO VISIBILITY.

* THESE REPORTS ARE NOT UNDER NWS QUALITY CONTROL AND MAY NOT
  REPORT WEATHER SUCH AS PRECIPITATION AND FOG.

KYZ079-080-083-085-087-088-110-112-115-119-120-271700
...EASTERN KENTUCKY...

CITY           SKY/WX    TMP DP  RH WIND       PRES   REMARKS
JACKSON        PTSUNNY   40  25  55 NW6       29.93F
LONDON         PTSUNNY   42  25  50 NW7       29.95S
SOMERSET*      CLOUDY    39  28  65 NE8       29.98F WCI  34
MONTICELLO*    PTSUNNY   45  31  58 N13       29.99
MIDDLESBORO*   CLOUDY    42  32  67 N9        29.93S
HAZARD APT*    PTSUNNY   41  30  65 N3        29.93F
BLACK MTN*       N/A     27  27 100 N5          N/A  WCI  21
PIKEVILLE APT* CLOUDY    37  27  65 NW5       29.92S WCI  34
BIG SANDY*     PTSUNNY   41  27  59 N9        29.93F
MOREHEAD APT*  MOSUNNY   39  23  52 N8G15     29.98S WCI  34
$$

KYZ035-036-041-042-044-050-067-078-099-271700
...CENTRAL KENTUCKY...

CITY           SKY/WX    TMP DP  RH WIND       PRES   REMARKS
MT STERLING*   PTSUNNY   39  28  65 NE8       29.98F WCI  34
FLEMING/MASON* PTSUNNY   37  21  52 N10G17    29.99S WCI  30
DANVILLE*      PTSUNNY   41  30  65 N12       29.99S
RICHMOND*      PTSUNNY   41  27  56 N8        29.97S
LEXINGTON      CLOUDY    40  26  57 N12       29.98F WCI  33
FRANKFORT      CLOUDY    39  24  55 N6        29.99S WCI  35
$$

KYZ091>093-OHZ055-061-077-WVZ005-015-034-035-042-271700
...SOUTHERN OHIO/WEST VIRGINIA...

CITY           SKY/WX    TMP DP  RH WIND       PRES   REMARKS
COVINGTON      PTSUNNY   35  23  61 N14       30.00S WCI  26
COLUMBUS       CLOUDY    32  22  66 NW13      29.97R WCI  22
DAYTON         CLOUDY    31  20  63 N16       30.02R WCI  20
WILMINGTON     CLOUDY    33  21  61 N13       29.98R WCI  24
HUNTINGTON     MOSUNNY   41  23  48 NW9       29.94F
CHARLESTON     PTSUNNY   40  23  50 NW13      29.91F WCI  32
PINEVILLE*     CLOUDY    39  29  69 MISG      29.92F
BECKLEY        CLOUDY    33  25  72 NW13      29.84S WCI  24
BLUEFIELD      CLOUDY    35  26  69 MISG      29.82S
$$

VAZ002-007-008-TNZ017-027-036-066-071-271700
...SOUTHWEST VIRGINIA/EAST TENNESSEE...

CITY           SKY/WX    TMP DP  RH WIND       PRES   REMARKS
WISE*          CLOUDY    34  32  93 N7        29.87F WCI  28
JONESVILLE*    CLOUDY    41  28  60 NW6       29.92F
ABINGDON*      PTSUNNY   40  30  68 N12G22    29.85R WCI  32
BRISTOL        PTSUNNY   43  31  62 N12G21    29.87S
KNOXVILLE      CLOUDY    44  32  62 N12       29.92R
OAK RIDGE      CLOUDY    46  30  53 N8        29.94R
CROSSVILLE     MOSUNNY   43  28  55 N15G21    29.92F
NASHVILLE      PTSUNNY   48  32  53 N8        30.01F
$$

...KEY TO REMARKS...
VSB - VISIBILITY IN MILES
WCI - WIND CHILL INDEX
HX  - HEAT INDEX

$$



USA.gov is the U.S. government's official web portal to all federal, state and local government web resources and services.